Latest Coastal Weather Observations for King Island Airport

IDV60701

Issued at 8:21 am EST Tuesday 27 September 2016 (issued every 10 minutes, with the page automatically refreshed every 10 minutes)

About coastal observations | Map of coastal stations | Coastal observations for VIC | Marine services | Other Formats
Station Details ID: 098017 Name: KING ISLAND AIRPORT Lat: -39.88 Lon: 143.88 Height: 37.0 m
Data from the previous 72 hours. | See also: Recent months at King Island Airport
Date/Time
EST
Temp
°C
Wind Pressure Rain since
9am
mm
Weather Cloud Vis
km
Sea
Height
m
Swell
Dir  Spd
kts
Gust
kts
hPa Trend Height
m
Period
s
Dir
27/08:00am 11.5 W 8 10 1008.8 - 6.0 - - 10 - - - -
27/07:30am 10.3 W 7 9 1008.6 - 6.0 - Partly cloudy 10 - - - -
27/07:00am 10.0 W 5 6 1008.4 - 6.0 - Partly cloudy 10 - - - -
27/06:30am 8.6 WNW 8 10 1008.2 - 6.0 - Partly cloudy 10 - - - -
27/06:00am 8.3 CALM 0 1 1007.9 - 6.0 Recent precip. Cloudy 10 - - - -
27/05:30am 6.1 ESE 5 6 1007.7 - 6.0 - Partly cloudy 10 - - - -
27/05:00am 6.1 E 4 5 1007.5 - 5.8 - Partly cloudy 10 - - - -
27/04:30am 5.8 E 4 5 1007.3 - 5.8 - Partly cloudy 10 - - - -
27/04:00am 6.5 ESE 4 5 1007.3 - 5.8 - Partly cloudy 10 - - - -
27/03:30am 6.4 E 4 5 1007.2 - 5.8 - Partly cloudy 10 - - - -
27/03:00am 6.2 CALM 0 0 1007.3 - 5.8 - Mostly cloudy 10 - - - -
27/02:30am 6.1 E 4 5 1007.3 - 5.8 - Partly cloudy 10 - - - -
27/02:00am 6.1 E 4 5 1007.6 - 5.8 - Cloudy 10 - - - -
27/01:30am 6.3 NE 4 5 1007.8 - 5.8 - Partly cloudy 10 - - - -
27/01:00am 6.6 E 4 4 1007.9 - 5.8 - Partly cloudy 10 - - - -
27/12:30am 7.0 ENE 3 4 1008.0 - 5.8 - Partly cloudy 10 - - - -
27/12:00am 7.2 CALM 0 0 1008.3 - 5.8 - Cloudy 10 - - - -
 
Date/Time
EST
Temp
°C
Wind Pressure Rain since
9am
mm
Weather Cloud Vis
km
Sea
Height
m
Swell
Dir  Spd
kts
Gust
kts
hPa Trend Height
m
Period
s
Dir
26/11:30pm 7.8 CALM 0 0 1008.3 - 5.8 - Partly cloudy 10 - - - -
26/11:00pm 8.1 CALM 0 3 1008.6 - 5.8 - Partly cloudy 10 - - - -
26/10:30pm 8.1 NW 8 11 1009.0 - 5.4 - Partly cloudy 10 - - - -
26/10:00pm 8.6 NW 13 17 1009.3 - 4.2 - Partly cloudy 10 - - - -
26/09:30pm 9.1 NNW 13 17 1009.4 - 3.2 - Partly cloudy 10 - - - -
26/09:00pm 9.6 NNW 12 16 1009.3 - 2.6 Drizzle Cloudy 10 - - - -
26/08:30pm 9.2 NNW 10 17 1009.3 - 2.2 - Partly cloudy 10 - - - -
26/08:25pm 9.4 NW 11 14 1009.3 - 2.2 - Partly cloudy 10 - - - -
26/08:00pm 10.2 NW 11 16 1009.1 - 1.4 - Partly cloudy 10 - - - -
26/07:55pm 10.1 NNW 13 17 1009.1 - 1.2 - Partly cloudy 10 - - - -
26/07:30pm 10.6 N 11 15 1008.9 - 0.6 - Partly cloudy 10 - - - -
26/07:00pm 11.3 NNE 12 15 1008.4 - 0.0 - Partly cloudy 10 - - - -
26/06:30pm 11.8 NNE 9 11 1008.3 - 0.0 - Partly cloudy 10 - - - -
26/06:00pm 12.1 NNE 7 9 1008.2 - 0.0 - Cloudy 10 - - - -
26/05:30pm 12.4 NNW 5 7 1008.1 - 0.0 - Partly cloudy 10 - - - -
26/05:00pm 13.0 NNW 6 9 1008.1 - 0.0 - Partly cloudy 10 - - - -
26/04:30pm 13.4 NNW 6 8 1008.0 - 0.0 - - 10 - - - -
26/04:00pm 13.0 NW 8 14 1008.1 - 0.0 - - 10 - - - -
26/03:30pm 13.7 NW 9 11 1008.3 - 0.0 - - 10 - - - -
26/03:00pm 13.6 NW 12 15 1008.6 - 0.0 - Mostly clear 10 - - - -
26/02:30pm 13.7 NW 14 18 1008.9 - 0.0 - Partly cloudy 10 - - - -
26/02:00pm 13.7 NW 13 17 1009.1 - 0.0 - Partly cloudy 10 - - - -
26/01:30pm 13.9 NW 15 20 1009.3 - 0.0 - Partly cloudy 10 - - - -
26/01:00pm 13.6 NNW 15 18 1009.5 - 0.0 - Partly cloudy 10 - - - -
26/12:30pm 13.9 NW 14 17 1009.8 - 0.0 - Partly cloudy 10 - - - -
26/12:00pm 13.8 NW 14 16 1010.1 - 0.0 - Mostly cloudy 10 - - - -
26/11:30am 13.2 NNW 13 17 1010.4 - 0.0 - - 10 - - - -
26/11:00am 13.0 NNW 15 18 1010.6 - 0.0 - Partly cloudy 10 - - - -
26/10:40am 12.7 NNW 10 17 1010.9 - 0.0 - Partly cloudy 10 - - - -
26/10:30am 11.9 N 5 7 1010.9 - 0.0 - Partly cloudy 10 - - - -
26/10:00am 10.6 N 8 10 1011.1 - 0.0 - Partly cloudy 10 - - - -
26/09:30am 9.9 N 9 12 1011.2 - 0.0 - Partly cloudy 10 - - - -
26/09:00am 11.3 NNW 15 18 1011.1 - 0.4 Showers Cloudy 10 - - - -
26/08:30am 12.5 N 12 16 1011.1 - 0.0 - Partly cloudy 10 - - - -
26/08:00am 12.3 NNW 14 18 1011.1 - 0.0 - Partly cloudy 10 - - - -
26/07:30am 10.6 NNW 11 15 1011.4 - 0.0 - Partly cloudy 10 - - - -
26/07:00am 10.6 NW 10 13 1011.4 - 0.0 - Partly cloudy 10 - - - -
26/06:30am 10.1 NW 9 12 1011.4 - 0.0 - Partly cloudy 10 - - - -
26/06:00am 9.9 WNW 11 15 1011.2 - 0.0 - Cloudy 10 - - - -
26/05:30am 10.0 WNW 14 18 1011.2 - 0.0 - Partly cloudy 10 - - - -
26/05:29am 10.0 WNW 12 18 1011.2 - 0.0 - Partly cloudy 10 - - - -
26/05:00am 7.4 E 4 5 1011.1 - 0.0 - Partly cloudy 10 - - - -
26/04:30am 8.2 E 4 5 1011.1 - 0.0 - Partly cloudy 10 - - - -
26/04:00am 9.2 CALM 0 2 1011.2 - 0.0 - Partly cloudy 10 - - - -
26/03:30am 9.5 CALM 0 0 1011.5 - 0.0 - Partly cloudy 10 - - - -
26/03:00am 8.2 E 4 5 1011.5 - 0.0 - Cloudy 10 - - - -
26/02:30am 8.4 ENE 5 5 1011.8 - 0.0 - Partly cloudy 10 - - - -
26/02:00am 8.8 NE 4 4 1012.1 - 0.0 - Partly cloudy 10 - - - -
26/01:30am 9.8 WNW 3 5 1012.3 - 0.0 - Partly cloudy 10 - - - -
26/01:00am 9.8 W 5 6 1012.6 - 0.0 - Partly cloudy 10 - - - -
26/12:30am 9.6 W 9 14 1012.8 - 0.0 - Partly cloudy 10 - - - -
26/12:00am 9.1 W 6 6 1012.7 - 0.0 Rain Mostly cloudy 10 - - - -
 
Date/Time
EST
Temp
°C
Wind Pressure Rain since
9am
mm
Weather Cloud Vis
km
Sea
Height
m
Swell
Dir  Spd
kts
Gust
kts
hPa Trend Height
m
Period
s
Dir
25/11:30pm 10.1 W 11 16 1012.8 - 0.0 - Partly cloudy 10 - - - -
25/11:00pm 9.9 WNW 6 7 1012.8 - 0.0 - Partly cloudy 10 - - - -
25/10:30pm 9.6 WNW 6 7 1013.1 - 0.0 - - 10 - - - -
25/10:00pm 10.0 WNW 6 7 1013.1 - 0.0 - Partly cloudy 10 - - - -
25/09:30pm 10.3 WNW 6 7 1013.1 - 0.0 - Partly cloudy 10 - - - -
25/09:00pm 10.3 W 7 10 1013.2 - 0.0 - Cloudy 10 - - - -
25/08:30pm 10.4 W 9 11 1013.1 - 0.0 - Partly cloudy 10 - - - -
25/08:00pm 10.4 W 9 12 1012.8 - 0.0 - Partly cloudy 10 - - - -
25/07:30pm 10.2 W 9 13 1012.7 - 0.0 - Partly cloudy 10 - - - -
25/07:00pm 10.3 W 8 11 1012.4 - 0.0 - Partly cloudy 10 - - - -
25/06:30pm 9.8 W 7 9 1012.0 - 0.0 - Partly cloudy 10 - - - -
25/06:00pm 10.3 WSW 9 14 1011.8 - 0.0 - Mostly clear 10 - - - -
25/05:30pm 11.4 W 10 14 1011.5 - 0.0 - Partly cloudy 10 - - - -
25/05:00pm 11.2 WSW 12 16 1011.4 - 0.0 - - 10 - - - -
25/04:30pm 12.5 WSW 13 17 1011.2 - 0.0 - Partly cloudy 10 - - - -
25/04:00pm 11.9 WSW 13 16 1011.0 - 0.0 - Partly cloudy 10 - - - -
25/03:30pm 11.8 WSW 14 19 1010.9 - 0.0 - Partly cloudy 10 - - - -
25/03:00pm 11.9 WSW 13 19 1010.8 - 0.0 - Cloudy 10 - - - -
25/02:30pm 12.5 WSW 15 20 1010.7 - 0.0 - Partly cloudy 10 - - - -
25/02:00pm 12.5 WSW 15 20 1010.6 - 0.0 - Partly cloudy 10 - - - -
25/01:30pm 12.4 WSW 16 20 1010.5 - 0.0 - Partly cloudy 10 - - - -
25/01:00pm 12.9 WSW 17 22 1010.6 - 0.0 - Partly cloudy 10 - - - -
25/12:30pm 12.5 WSW 18 25 1010.6 - 0.0 - Partly cloudy 10 - - - -
25/12:00pm 12.2 WSW 16 22 1010.4 - 0.0 - Mostly clear 10 - - - -
25/11:30am 12.9 WSW 19 23 1010.3 - 0.0 - Partly cloudy 10 - - - -
25/11:00am 12.3 WSW 18 22 1010.1 - 0.0 - Partly cloudy 10 - - - -
25/10:30am 11.7 WSW 18 22 1010.0 - 0.0 - Partly cloudy 10 - - - -
25/10:00am 11.8 W 16 24 1009.8 - 0.0 - Partly cloudy 10 - - - -
25/09:30am 11.7 WSW 18 22 1009.5 - 0.0 - Partly cloudy 10 - - - -
25/09:00am 10.5 WSW 14 18 1009.3 - 10.0 - Cloudy 10 - - - -
25/08:30am 10.8 WSW 16 21 1009.0 - 10.0 - Partly cloudy 10 - - - -
25/08:00am 10.2 WSW 12 19 1008.6 - 10.0 - Partly cloudy 10 - - - -
25/07:43am 10.4 W 15 26 1008.3 - 10.0 - Partly cloudy 10 - - - -
25/07:30am 10.8 WSW 16 23 1008.1 - 10.0 - Partly cloudy 10 - - - -
25/07:00am 9.9 WSW 16 21 1007.9 - 10.0 - Partly cloudy 10 - - - -
25/06:30am 9.4 WSW 15 26 1007.6 - 10.0 - Partly cloudy 10 - - - -
25/06:21am 9.5 W 15 26 1007.5 - 10.0 - Partly cloudy 10 - - - -
25/06:00am 9.8 W 14 20 1007.1 - 10.0 - Mostly clear 10 - - - -
25/05:30am 10.0 W 15 21 1007.0 - 10.0 - Partly cloudy 10 - - - -
25/05:00am 9.7 W 14 22 1006.6 - 10.0 - Partly cloudy 10 - - - -
25/04:30am 10.1 W 15 24 1006.3 - 10.0 - Partly cloudy 10 - - - -
25/04:00am 10.0 W 14 20 1006.1 - 10.0 - - 10 - - - -
25/03:34am 10.1 W 15 25 1005.9 - 10.0 - Partly cloudy 10 - - - -
25/03:30am 10.1 W 15 20 1005.9 - 10.0 - Partly cloudy 10 - - - -
25/03:02am 10.7 W 15 27 1005.6 - 10.0 - Partly cloudy 10 - - - -
25/03:00am 10.8 W 15 21 1005.5 - 10.0 - Mostly cloudy 10 - - - -
25/02:31am 10.9 W 15 25 1005.6 - 10.0 - Partly cloudy 10 - - - -
25/02:30am 10.9 W 14 22 1005.6 - 10.0 - Partly cloudy 10 - - - -
25/02:00am 10.8 W 14 18 1005.6 - 10.0 - Partly cloudy 10 - - - -
25/01:30am 11.0 WSW 14 18 1005.5 - 10.0 - Partly cloudy 10 - - - -
25/01:00am 10.9 W 14 17 1005.3 - 10.0 - - 10 - - - -
25/12:30am 11.0 W 15 20 1005.0 - 10.0 - Partly cloudy 10 - - - -
25/12:00am 11.5 W 16 23 1004.9 - 10.0 - Cloudy 10 - - - -
 
Date/Time
EST
Temp
°C
Wind Pressure Rain since
9am
mm
Weather Cloud Vis
km
Sea
Height
m
Swell
Dir  Spd
kts
Gust
kts
hPa Trend Height
m
Period
s
Dir
24/11:30pm 11.6 WSW 14 19 1004.7 - 10.0 - Partly cloudy 10 - - - -
24/11:00pm 11.6 WSW 15 20 1004.6 - 10.0 - Partly cloudy 10 - - - -
24/10:30pm 11.3 WSW 16 21 1004.4 - 10.0 - Partly cloudy 10 - - - -
24/10:25pm 11.1 WSW 16 22 1004.2 - 10.0 - Partly cloudy 10 - - - -
24/10:14pm 11.0 WSW 16 22 1004.1 - 10.0 - Partly cloudy 10 - - - -
24/10:03pm 11.9 NNW 15 20 1004.0 - 10.0 - Partly cloudy 5 - - - -
24/10:02pm 12.1 NNW 15 20 1004.0 - 10.0 - Partly cloudy 6 - - - -
24/10:00pm 12.6 N 15 20 1003.8 - 9.6 - Partly cloudy 7 - - - -
24/09:47pm 12.4 N 17 22 1003.8 - 8.8 - Partly cloudy 4 - - - -
24/09:38pm 12.4 N 18 25 1003.8 - 7.4 - Partly cloudy 5 - - - -
24/09:30pm 12.6 N 18 25 1003.8 - 6.6 - Partly cloudy 7 - - - -
24/09:00pm 12.9 N 15 20 1003.9 - 5.6 Rain Cloudy 8 - - - -
24/08:55pm 13.0 NNW 15 20 1003.8 - 5.4 - Partly cloudy 8 - - - -
24/08:45pm 13.0 NNW 13 17 1003.9 - 5.0 - Partly cloudy 6 - - - -
24/08:30pm 13.0 NNW 14 19 1003.9 - 4.0 - Partly cloudy 5 - - - -
24/08:29pm 13.0 NNW 15 19 1003.9 - 4.0 - Partly cloudy 4 - - - -
24/08:10pm 13.2 N 15 21 1003.9 - 1.2 - Partly cloudy 5 - - - -
24/08:00pm 13.4 N 14 19 1003.8 - 0.6 - Partly cloudy 10 - - - -
24/07:30pm 13.6 N 11 15 1003.5 - 0.2 - Partly cloudy 10 - - - -
24/07:00pm 14.3 N 10 15 1003.4 - 0.0 - Cloudy 10 - - - -
24/06:30pm 14.6 N 12 16 1003.2 - 0.0 - Partly cloudy 10 - - - -
24/06:00pm 15.3 N 12 16 1003.2 - 0.0 Drizzle Cloudy 10 - - - -
24/05:30pm 15.0 NNE 9 12 1003.0 - 0.0 - Cloudy 10 - - - -
24/05:00pm 15.0 NNE 10 14 1003.1 - 0.0 - Partly cloudy 10 - - - -
24/04:30pm 15.0 NNE 13 16 1003.3 - 0.0 - Partly cloudy 10 - - - -
24/04:00pm 15.0 NNE 13 19 1003.4 - 0.0 - Partly cloudy 10 - - - -
24/03:30pm 15.1 NNE 13 17 1003.4 - 0.0 - Cloudy 10 - - - -
24/03:00pm 15.7 NNE 13 16 1003.8 - 0.0 Showers Mostly cloudy 10 - - - -
24/02:30pm 15.7 NNE 15 18 1004.0 - 0.0 - Partly cloudy 10 - - - -
24/02:00pm 16.1 NNE 17 20 1004.1 - 0.0 - Partly cloudy 10 - - - -
24/01:30pm 16.4 NNE 15 18 1004.3 - 0.0 - - 10 - - - -
24/01:00pm 17.2 NNE 15 21 1004.6 - 0.0 - - 10 - - - -
24/12:30pm 17.1 N 16 20 1005.3 - 0.0 - - 10 - - - -
24/12:00pm 17.0 N 17 23 1005.7 - 0.0 - Mostly cloudy 10 - - - -
24/11:30am 17.1 NNE 15 19 1005.9 - 0.0 - - 10 - - - -
24/11:00am 16.1 NNE 15 18 1006.2 - 0.0 - - 10 - - - -
24/10:30am 16.2 NNE 15 19 1006.5 - 0.0 - - 10 - - - -
24/10:00am 15.9 NNE 15 19 1007.1 - 0.0 - - 10 - - - -
24/09:30am 15.4 NNE 13 17 1007.4 - 0.0 - - 10 - - - -
24/09:00am 14.7 N 15 19 1007.8 - 0.0 - - 10 - - - -
24/08:30am 13.8 NNE 13 17 1007.9 - 0.0 - - 10 - - - -

Other Formats:

Comma delimited format used in spreadsheet applications
http://www.bom.gov.au/fwo/IDV60701/IDV60701.94850.axf

JavaScript Object Notation format (JSON) in row-major order
http://www.bom.gov.au/fwo/IDV60701/IDV60701.94850.json